#timestamp,LO_Frequency,Hit,StdDev 
1541019615.8,286047002.7,N
1541019635.7,286047000.5,N
1541019655.5,286047000.6,N
1541019675.3,286047000.8,N
1541019695.2,286046998.1,N
1541019715.0,286047000.4,N
1541019715.9,286047000.4,N
1541019735.8,286047000.9,N
1541019755.6,286047001.7,N
1541019775.4,286047005.6,Y
1541019795.3,286047004.1,P
1541019815.1,286047004.0,N
1541019835.8,286047003.3,N
1541019855.7,286047004.2,Y
1541019875.5,286046998.7,P
1541019895.4,286046998.8,N
1541019915.2,286046997.7,N
1541019935.0,286047001.2,N
1541019935.9,286047001.2,N
1541019955.8,286046999.3,N
1541019975.6,286046996.6,N
1541019995.5,286046995.4,N
1541020015.3,286046996.1,N
1541020035.1,286046996.2,N
1541020055.9,286046995.0,N
1541020075.7,286046994.9,N
1541020095.5,286046996.1,N
1541020115.4,286046996.0,N
1541020135.2,286046995.2,N
1541020155.1,286046996.1,N
1541020156.0,286046996.1,N
1541020175.8,286046995.8,N
1541020195.6,286046996.2,N
1541020215.5,286046992.5,Y
1541020235.3,286046994.5,P
1541020255.1,286046996.0,N
1541020275.9,286046996.6,P
1541020295.7,286046998.0,N
1541020315.6,286046997.6,N
1541020335.4,286047000.5,N
1541020355.2,286046998.2,N
1541020375.1,286046998.5,N
1541020376.0,286046998.5,N
1541020395.8,286047000.3,N
1541020415.7,286047001.2,N
1541020435.5,286046998.8,N
1541020455.3,286046998.4,N
1541020475.2,286046998.2,N
1541020495.9,286046998.8,N
1541020515.7,286046998.6,N
1541020535.6,286047000.0,N
1541020555.4,286047002.8,N
1541020575.3,286047002.4,N
1541020595.1,286047002.7,N
1541020596.0,286047002.7,N
1541020615.8,286047002.3,N
1541020635.7,286047002.6,N
1541020655.5,286047004.2,N
1541020675.3,286047001.3,N
1541020695.2,286047003.9,N
1541020715.0,286047004.3,N
1541020715.9,286047004.3,N
1541020735.8,286047001.3,N
1541020755.6,286047001.3,N
1541020775.4,286047004.4,N
1541020795.3,286047004.1,N
1541020815.1,286047003.2,N
1541020835.8,286047006.0,N
1541020855.7,286047005.1,N
1541020875.5,286047004.7,N
1541020895.4,286047003.4,N
1541020915.2,286047004.1,N
1541020935.0,286047004.2,N
1541020935.9,286047004.2,N
1541020955.8,286047004.6,N
1541020975.6,286047004.7,N
1541020995.5,286047005.5,N
1541021015.3,286047007.1,Y
1541021035.1,286047002.5,P
1541021055.9,286047003.3,P
1541021075.7,286047003.2,P
1541021125.6,286047004.7,E
1541021135.5,286047004.2,N
1541021155.3,286046999.0,P
1541021175.2,286047000.4,N
1541021195.0,286047000.7,N
1541021195.9,286047000.7,N
1541021215.7,286046998.7,N
1541021235.6,286046996.6,N
1541021255.4,286046997.1,N
1541021275.3,286046996.8,N
1541021295.1,286046995.3,N
1541021296.0,286046995.3,N
1541021315.8,286046997.3,N
1541021335.7,286046996.8,N
1541021355.5,286046999.6,N
1541021375.3,286046997.8,N
1541021395.2,286046997.2,N
1541021415.0,286046995.5,N
1541021415.9,286046995.5,N
1541021435.8,286046995.9,N
1541021455.6,286046995.7,N
1541021475.4,286046995.1,N
1541021495.3,286046997.6,N
1541021515.1,286046997.1,N
1541021535.8,286046999.2,N
1541021555.7,286046999.4,N
1541021575.5,286046999.2,N
1541021595.4,286046999.4,N
1541021615.2,286046998.7,N
1541021635.0,286046998.8,N
1541021635.9,286046998.8,N
1541021655.8,286046999.6,N
1541021675.6,286046999.2,N
1541021695.4,286046998.2,N
1541021715.3,286046999.4,N
1541021735.1,286046999.2,N
1541021755.9,286046996.6,N
1541021775.7,286046996.5,N
1541021795.5,286046999.5,N
1541021815.4,286046999.2,N
1541021835.2,286046998.4,N
1541021855.0,286046998.3,N
1541021856.0,286046998.3,N
1541021875.8,286047001.1,N
1541021895.6,286047000.7,N
1541021915.5,286046999.0,N
1541021935.3,286046999.0,N
1541021955.1,286046997.6,N
1541021975.9,286046997.3,N
1541021995.7,286046997.6,N
1541022015.6,286046997.9,N
1541022035.4,286046997.0,N
1541022055.2,286046996.7,Y
1541022075.1,286046999.0,P
1541022076.0,286046999.0,P
1541022095.8,286047000.7,P
1541022115.6,286047000.8,N
1541022135.5,286046996.8,Y
1541022155.3,286046999.0,P
1541022175.2,286047000.4,N
1541022195.9,286047001.5,N
1541022215.7,286047001.7,N
1541022235.6,286047002.1,N
1541022255.4,286047001.2,N
1541022275.2,286047001.3,N
1541022295.1,286047001.3,N
1541022296.0,286047001.3,N
1541022315.8,286047001.8,N
1541022335.7,286047003.9,Y
1541022355.5,286047004.1,P
1541022375.3,286047001.8,N
1541022395.2,286047001.8,N
1541022415.0,286047002.4,N
1541022415.9,286047002.4,N
1541022435.8,286047002.0,N
1541022455.6,286046998.5,N
1541022475.4,286047000.5,N
1541022525.3,286047001.1,E
1541022535.2,286047001.1,N
1541022555.1,286046998.4,P
1541022556.0,286046998.4,N
1541022575.8,286046997.3,N
1541022595.6,286046997.1,N
1541022615.5,286046996.8,N
1541022635.3,286046996.6,N
1541022655.2,286047000.1,N
1541022675.9,286046998.5,N
1541022695.7,286046999.6,N
1541022715.6,286046996.8,N
1541022735.4,286046997.7,N
1541022755.2,286046995.6,Y
1541022775.1,286046995.5,P
1541022776.0,286046995.5,P
1541022795.8,286046997.6,N
1541022815.7,286046997.5,N
1541022835.5,286046998.0,N
1541022855.3,286046994.2,Y
1541022875.2,286046997.3,P
1541022895.0,286046998.1,P
1541022895.9,286046998.1,P
1541022915.8,286046996.5,Y
1541022935.6,286047002.6,P
1541022955.4,286047000.1,N
1541022975.3,286047002.7,N
1541022995.1,286047000.5,N
1541023015.8,286047000.8,N
1541023035.7,286047001.1,N
1541023055.5,286047000.5,N
1541023075.4,286047001.2,N
1541023095.2,286046998.5,N
1541023115.0,286046998.8,N
1541023115.9,286046998.8,N
1541023135.8,286047002.8,N
1541023155.6,286047002.1,N
1541023175.5,286047001.0,N
1541023195.3,286047000.2,N
